LEMUR 2 WALLACE

导读

LEMUR 2 WALLACE是美国于2020年11月7日发射的低地球轨道纳米卫星,属于Spire全球公司Lemur-2多用途卫星星座,一般为3U立方星构型,运行在400-600公里高度轨道,核心任务包括无线电掩星探测、船舶自动识别系统(AIS)船舶跟踪,部分卫星可开展GNSS反射测量等观测,为气象监测、海事管理等领域提供数据支撑。

Basic Information
目录编号:
46910
目录名称:
LEMUR 2 WALLACE
国际标识:
2020-081F
轨道中心:
EARTH
卫星名称:
LEMUR 2 WALLACE
卫星全名:
--
卫星状态:
已陨落 最后检测时间 2024-09-13
发射日期:
2020-11-07 UTC
国别 :
美国 (US)
星等 :
--
Orbit Information
数据来源 国际轨道数据
星历时间: 2024-09-13T22:04:52+0800
轨道信息已过期668天
半长轴: 6542.495km
偏心率: 0.0007599
轨道倾角: 36.887°
近地点辐角 143.780°
升交点赤经 257.702°
平近点角 205.640°
近地点: 159.388km
远地点: 169.332km
周期: 87.776分钟
每日圈数: 16.405432
Detailed Information
使用方式:
暂无